TimeCST,TemperatureF,Dew PointF,Humidity,Sea Level PressureIn,VisibilityMPH,Wind Direction,Wind SpeedMPH,Gust SpeedMPH,PrecipitationIn,Events,Conditions,WindDirDegrees,DateUTC
12:15 AM,33.8,21.9,62,30.16,10.0,North,3.5,-,N/A,,Mostly Cloudy,10,2013-02-21 06:15:00
12:35 AM,33.8,21.9,62,30.16,10.0,North,3.5,-,N/A,,Mostly Cloudy,10,2013-02-21 06:35:00
12:55 AM,33.8,21.0,60,30.17,10.0,North,4.6,-,N/A,,Mostly Cloudy,350,2013-02-21 06:55:00
1:15 AM,33.1,20.5,60,30.17,10.0,Calm,Calm,-,N/A,,Scattered Clouds,0,2013-02-21 07:15:00
1:35 AM,32.5,20.8,62,30.18,10.0,NNW,3.5,-,N/A,,Clear,340,2013-02-21 07:35:00
1:55 AM,31.8,21.2,65,30.17,10.0,North,3.5,-,N/A,,Clear,360,2013-02-21 07:55:00
2:15 AM,30.9,21.2,67,30.16,10.0,Calm,Calm,-,N/A,,Clear,0,2013-02-21 08:15:00
2:35 AM,30.6,22.5,72,30.16,10.0,Calm,Calm,-,N/A,,Scattered Clouds,0,2013-02-21 08:35:00
2:55 AM,30.6,22.5,72,30.15,10.0,Calm,Calm,-,N/A,,Mostly Cloudy,0,2013-02-21 08:55:00
3:15 AM,31.8,21.6,66,30.15,10.0,North,4.6,-,N/A,,Overcast,350,2013-02-21 09:15:00
3:35 AM,32.0,20.8,63,30.14,10.0,NNE,5.8,-,N/A,,Overcast,30,2013-02-21 09:35:00
3:55 AM,32.2,21.0,63,30.13,10.0,NNE,5.8,-,N/A,,Overcast,30,2013-02-21 09:55:00
4:15 AM,32.2,21.0,63,30.13,10.0,NNE,4.6,-,N/A,,Mostly Cloudy,20,2013-02-21 10:15:00
4:35 AM,32.2,21.4,64,30.15,10.0,North,3.5,-,N/A,,Scattered Clouds,10,2013-02-21 10:35:00
4:55 AM,32.4,21.6,64,30.14,10.0,NE,4.6,-,N/A,,Scattered Clouds,40,2013-02-21 10:55:00
5:15 AM,32.2,22.3,67,30.15,10.0,NNW,3.5,-,N/A,,Scattered Clouds,340,2013-02-21 11:15:00
5:55 AM,30.7,22.3,71,30.16,10.0,NE,3.5,-,N/A,,Mostly Cloudy,50,2013-02-21 11:55:00
6:15 AM,31.8,22.8,69,30.15,10.0,NE,4.6,-,N/A,,Overcast,50,2013-02-21 12:15:00
6:35 AM,31.8,21.2,65,30.16,10.0,North,4.6,-,N/A,,Scattered Clouds,350,2013-02-21 12:35:00
6:55 AM,31.5,21.6,67,30.16,10.0,NE,3.5,-,N/A,,Clear,50,2013-02-21 12:55:00
7:15 AM,33.1,20.5,60,30.16,10.0,ENE,4.6,-,N/A,,Clear,60,2013-02-21 13:15:00
7:35 AM,34.0,19.6,56,30.17,10.0,NE,4.6,-,N/A,,Clear,50,2013-02-21 13:35:00
7:55 AM,35.6,19.0,51,30.16,10.0,ENE,6.9,-,N/A,,Clear,70,2013-02-21 13:55:00
8:15 AM,37.2,19.0,48,30.16,10.0,ENE,6.9,-,N/A,,Clear,70,2013-02-21 14:15:00
8:35 AM,38.8,18.3,44,30.15,10.0,East,9.2,-,N/A,,Clear,80,2013-02-21 14:35:00
8:55 AM,40.3,18.3,41,30.14,10.0,East,6.9,-,N/A,,Clear,100,2013-02-21 14:55:00
9:15 AM,42.3,19.8,41,30.14,10.0,ESE,6.9,-,N/A,,Clear,110,2013-02-21 15:15:00
9:35 AM,44.6,19.8,37,30.13,10.0,ESE,5.8,-,N/A,,Clear,120,2013-02-21 15:35:00
9:55 AM,46.9,19.8,34,30.13,10.0,ESE,6.9,-,N/A,,Clear,120,2013-02-21 15:55:00
10:15 AM,48.6,19.4,32,30.12,10.0,East,6.9,-,N/A,,Clear,90,2013-02-21 16:15:00
10:35 AM,49.3,19.4,31,30.10,10.0,SE,6.9,-,N/A,,Clear,130,2013-02-21 16:35:00
10:55 AM,50.7,21.0,31,30.09,10.0,East,8.1,-,N/A,,Clear,100,2013-02-21 16:55:00
11:15 AM,52.2,21.6,30,30.08,10.0,SE,8.1,-,N/A,,Clear,130,2013-02-21 17:15:00
11:35 AM,53.4,23.4,31,30.08,10.0,SSE,9.2,-,N/A,,Clear,150,2013-02-21 17:35:00
11:55 AM,54.1,24.6,32,30.04,10.0,East,8.1,-,N/A,,Clear,90,2013-02-21 17:55:00
12:15 PM,53.1,25.0,34,30.04,10.0,SE,9.2,-,N/A,,Clear,130,2013-02-21 18:15:00
12:35 PM,53.6,25.3,34,30.01,10.0,ESE,10.4,18.4,N/A,,Clear,110,2013-02-21 18:35:00
12:55 PM,53.8,24.6,32,30.00,10.0,SE,10.4,16.1,N/A,,Clear,130,2013-02-21 18:55:00
1:15 PM,54.5,24.8,32,29.96,10.0,ESE,8.1,-,N/A,,Clear,110,2013-02-21 19:15:00
1:35 PM,54.7,25.3,32,29.97,10.0,SE,5.8,-,N/A,,Scattered Clouds,130,2013-02-21 19:35:00
1:55 PM,54.7,25.7,33,29.95,10.0,ESE,8.1,-,N/A,,Scattered Clouds,110,2013-02-21 19:55:00
2:15 PM,54.1,25.5,33,29.92,10.0,ESE,9.2,-,N/A,,Clear,110,2013-02-21 20:15:00
2:35 PM,53.6,27.9,37,29.86,10.0,ESE,11.5,19.6,N/A,Rain,Light Rain,110,2013-02-21 20:35:00
2:55 PM,52.7,29.8,42,29.91,10.0,SSE,6.9,-,N/A,,Scattered Clouds,150,2013-02-21 20:55:00
3:15 PM,54.0,29.1,39,29.90,10.0,SE,10.4,-,N/A,,Scattered Clouds,140,2013-02-21 21:15:00
3:35 PM,53.4,29.8,40,29.87,10.0,East,4.6,-,N/A,Rain,Light Rain,100,2013-02-21 21:35:00
3:55 PM,51.4,33.8,51,29.94,7.0,Calm,Calm,-,0.02,Rain-Thunderstorm,Heavy Thunderstorms and Rain,0,2013-02-21 21:55:00
4:35 PM,45.9,40.5,81,29.91,4.0,NE,4.6,-,0.08,Rain,Light Rain,50,2013-02-21 22:35:00
4:55 PM,46.4,40.1,79,29.91,10.0,ESE,5.8,-,0.09,Rain,Light Rain,110,2013-02-21 22:55:00
5:15 PM,45.9,40.5,81,29.91,7.0,East,5.8,-,0.05,Rain,Light Rain,100,2013-02-21 23:15:00
5:35 PM,45.5,41.2,85,29.91,5.0,ESE,6.9,-,0.08,Rain,Light Rain,110,2013-02-21 23:35:00
5:55 PM,45.3,41.5,87,29.90,5.0,ESE,10.4,16.1,0.11,Rain-Thunderstorm,Light Thunderstorms and Rain,120,2013-02-21 23:55:00
6:15 PM,45.7,41.7,86,29.91,10.0,SE,4.6,-,0.02,Rain,Light Rain,130,2013-02-22 00:15:00
6:35 PM,45.5,42.4,89,29.94,4.0,ESE,5.8,-,0.10,Rain,Rain,110,2013-02-22 00:35:00
6:55 PM,45.5,42.8,90,29.95,7.0,ESE,5.8,-,0.13,Rain,Rain,110,2013-02-22 00:55:00
7:15 PM,45.7,42.8,90,29.95,10.0,East,3.5,-,N/A,Rain,Light Rain,90,2013-02-22 01:15:00
7:35 PM,45.9,43.0,90,29.97,10.0,ESE,4.6,-,0.01,Rain,Light Rain,120,2013-02-22 01:35:00
7:55 PM,45.9,43.3,91,29.98,7.0,ESE,6.9,-,0.05,Rain-Thunderstorm,Rain,120,2013-02-22 01:55:00
8:15 PM,46.0,43.7,92,29.98,5.0,ESE,8.1,-,0.06,Rain,Heavy Rain,120,2013-02-22 02:15:00
8:35 PM,46.0,43.9,92,29.98,3.0,SE,11.5,-,0.18,Rain,Heavy Rain,130,2013-02-22 02:35:00
8:55 PM,45.9,44.2,94,29.97,4.0,ESE,12.7,17.3,0.32,Rain,Heavy Rain,120,2013-02-22 02:55:00
9:15 PM,45.7,44.6,96,29.96,4.0,SE,16.1,23.0,0.07,Rain,Rain,130,2013-02-22 03:15:00
9:35 PM,45.9,44.4,95,29.93,7.0,ESE,18.4,23.0,0.14,Rain,Rain,120,2013-02-22 03:35:00
10:15 PM,45.9,44.6,95,29.94,7.0,SE,13.8,19.6,0.03,Rain,Rain,130,2013-02-22 04:15:00
10:35 PM,45.9,44.8,96,29.94,5.0,SE,13.8,23.0,0.08,Rain,Light Rain,130,2013-02-22 04:35:00
10:55 PM,46.0,45.1,97,29.93,7.0,ESE,15.0,20.7,0.08,Rain,Light Rain,120,2013-02-22 04:55:00
11:15 PM,46.2,45.3,97,29.94,5.0,SE,11.5,19.6,0.03,Rain,Rain,130,2013-02-22 05:15:00
11:35 PM,46.6,45.9,97,29.95,4.0,SE,10.4,17.3,0.12,Rain,Rain,130,2013-02-22 05:35:00
11:55 PM,47.3,46.2,96,29.95,7.0,SE,10.4,18.4,0.16,Rain,Rain,130,2013-02-22 05:55:00